Location: Muenchen
(48.1800°N, 11.5800°E)
Time: 00:08:38
(UTC+02:00)

Vanguard 2 Rocket - Visible Passes

Search period start: 24 April 2014 00:00
Search period end: 04 May 2014 00:00
Orbit: 555 x 3336 km, 32.9° (Epoch: 23 April)

Date Brightness Start Highest point End Pass type
(mag) Time Alt. Az. Time Alt. Az. Time Alt. Az.
29 Apr 10.9 05:16:46 10° S 05:25:21 15° SE 05:32:48 10° ESE visible
30 Apr 11.0 04:23:59 10° SE 04:26:15 10° SE 04:28:27 10° SE visible
02 May 10.8 04:31:26 10° S 04:42:28 18° SE 04:52:13 10° ESE visible
03 May 10.9 03:36:27 10° SSE 03:43:16 13° SE 03:49:46 10° ESE visible
